Weather History for Las Vegas, NV

Change the Weather History Date:

Friday, August 2, 2013

  Actual Average Record
Temperature  
Mean Temperature 92 °F 92 °F  
Max Temperature 104 °F 104 °F 115 °F (1977)
Min Temperature 80 °F 81 °F 55 °F (1937)
Degree Days  
Heating Degree Days 0 0  
Month to date heating degree days 0 0  
Since 1 June heating degree days 0 1  
Since 1 July heating degree days 0 0  
Cooling Degree Days 27 27  
Month to date cooling degree days 58 55  
Year to date cooling degree days 2467 2109  
Since 1 June cooling degree days 1777 1559  
Growing Degree Days 42 (Base 50)    
Moisture  
Dew Point 26 °F    
Average Humidity 11    
Maximum Humidity 16    
Minimum Humidity 6    
Precipitation  
Precipitation 0.00 in 0.02 in 0.08 in (2000)
Month to date precipitation 0.00 0.03  
Year to date precipitation 0.91 2.51  
Snow  
Snow 0.00 in 0.00 in 0.00 in ()
Month to date snowfall 0.0 0.0  
Since 1 June snowfall 0.0 0.0  
Since 1 July snowfall 0.0 0.0  
Snow Depth 0.00 in    
Sea Level Pressure  
Sea Level Pressure 29.72 in    
Wind  
Wind Speed 12 mph (SSW)    
Max Wind Speed 24 mph    
Max Gust Speed 31 mph    
Visibility 10 miles    
Events      
T = Trace of Precipitation, MM = Missing Value Source: NWS Daily Summary

Daily Weather History Graph

Daily Weather History Graph

Search for Another Location

Airport:

Trip Planner

Search our weather history database for the weather conditions in past years. The results will help you decide how hot, cold, wet, or windy it might be!

Date:

Astronomy

Aug. 02, 2013 Rise Set
Actual Time 5:48 AM PDT 7:44 PM PDT
Civil Twilight 5:20 AM PDT 8:12 PM PDT
Nautical Twilight 4:46 AM PDT 8:46 PM PDT
Astronomical Twilight 4:09 AM PDT 9:23 PM PDT
Moon 2:14 AM PDT (8/2) 4:44 PM PDT (8/2)
Length of Visible Light 14h 51m
Length of Day
13h 55m
Waning Crescent, 15% of the Moon is Illuminated
Aug 2
Waning Crescent
Aug 6
New
Aug 14
First Quarter
Aug 20
Full
Aug 28
Last Quarter

Hourly Weather History & Observations

Time (PDT) Temp. Dew Point Humidity Pressure Visibility Wind Dir Wind Speed Gust Speed Precip Events Conditions
12:56 AM 86.0 °F 23.0 °F 10% 29.70 in 10.0 mi South 13.8 mph - N/A   Clear
1:56 AM 84.9 °F 21.9 °F 10% 29.70 in 10.0 mi South 15.0 mph - N/A   Clear
2:56 AM 84.0 °F 26.1 °F 12% 29.70 in 10.0 mi SSW 13.8 mph - N/A   Clear
3:56 AM 84.0 °F 27.0 °F 13% 29.70 in 10.0 mi SSW 15.0 mph - N/A   Clear
4:56 AM 82.0 °F 28.0 °F 14% 29.71 in 10.0 mi South 13.8 mph - N/A   Partly Cloudy
5:56 AM 80.1 °F 28.9 °F 15% 29.74 in 10.0 mi South 4.6 mph - N/A   Partly Cloudy
6:56 AM 80.1 °F 30.0 °F 16% 29.75 in 10.0 mi SSW 9.2 mph - N/A   Scattered Clouds
7:56 AM 82.9 °F 30.9 °F 15% 29.78 in 10.0 mi South 16.1 mph 23.0 mph N/A   Mostly Cloudy
8:56 AM 87.1 °F 30.9 °F 13% 29.79 in 10.0 mi South 17.3 mph - N/A   Mostly Cloudy
9:56 AM 91.0 °F 28.0 °F 10% 29.79 in 10.0 mi South 15.0 mph - N/A   Mostly Cloudy
10:56 AM 91.9 °F 28.9 °F 11% 29.79 in 10.0 mi South 8.1 mph - N/A   Mostly Cloudy
11:56 AM 96.1 °F 28.9 °F 9% 29.77 in 10.0 mi Variable 3.5 mph - N/A   Mostly Cloudy
12:56 PM 98.1 °F 33.1 °F 10% 29.75 in 10.0 mi SSW 10.4 mph - N/A   Mostly Cloudy
1:56 PM 100.9 °F 30.9 °F 9% 29.72 in 10.0 mi WSW 13.8 mph 19.6 mph N/A   Mostly Cloudy
2:56 PM 102.0 °F 24.1 °F 6% 29.70 in 10.0 mi South 19.6 mph 31.1 mph N/A   Mostly Cloudy
3:56 PM 100.9 °F 25.0 °F 7% 29.68 in 10.0 mi SSW 16.1 mph 26.5 mph N/A   Mostly Cloudy
4:56 PM 100.9 °F 21.9 °F 6% 29.67 in 10.0 mi South 20.7 mph 26.5 mph N/A   Mostly Cloudy
5:56 PM 100.0 °F 21.9 °F 6% 29.67 in 10.0 mi SW 12.7 mph 27.6 mph N/A   Mostly Cloudy
6:56 PM 97.0 °F 19.0 °F 6% 29.66 in 10.0 mi SW 15.0 mph - N/A   Mostly Cloudy
7:56 PM 95.0 °F 21.0 °F 7% 29.67 in 10.0 mi SW 12.7 mph - N/A   Mostly Cloudy
8:56 PM 93.0 °F 21.9 °F 8% 29.72 in 10.0 mi SSW 9.2 mph - N/A   Mostly Cloudy
9:56 PM 91.0 °F 23.0 °F 8% 29.74 in 10.0 mi SSW 8.1 mph - N/A   Mostly Cloudy
10:56 PM 88.0 °F 24.1 °F 10% 29.74 in 10.0 mi SSW 10.4 mph - N/A   Scattered Clouds
11:56 PM 86.0 °F 25.0 °F 11% 29.75 in 10.0 mi SW 9.2 mph - N/A   Partly Cloudy